Weather in Koksharka

Russia / Vologda Oblast     59°51′27″N   44°32′32″E
temp.,
°C
wind,
m/s
gust,
m/s
humid.,
%
clouds,
%
prec.,
mm/h
press.,
hPa
HPBL,
m
13 june, sun
sun1300:00+14ese38765 0.0 1010164
03:00+11se279866 0.0 1011163
06:00+14se3894100 0.1 1010399
09:00+16sse478499 0.2 1010564
12:00+21sse466377 0.8 10091481
15:00+19sse3783100 2.1 1009681
18:00+20sse378150 1.4 1008754
21:00+16se269595 1.9 1008114
14 june, mon
mon1400:00+15s269759 2.4 1008129
03:00+14ssw239729 2.6 100952
06:00+17sw25915 0.0 1009219
09:00+21wsw357760 2.1 1010588
12:00+22wsw357722 4.5 1011887
15:00+25w364399 5.0 10102415
18:00+22wnw376044 0.0 1012673
21:00+17w238456 0.4 101372
15 june, tue
tue1500:00+15nnw229787 0.4 101442
03:00+13n22975 0.4 101537
06:00+16e11855 0.0 1015159
09:00+21w126519 0.1 1014865
12:00+23sw346311 0.9 10121200
15:00+24sw355518 1.6 10111493
18:00+22s256714 0.0 1010272
21:00+19ssw2583100 0.1 1009119
16 june, wed
wed1600:00+18s258598 0.0 1009128
03:00+17s2788100 0.1 1008167
06:00+17sw2696100 1.6 1008238
09:00+20w357993 2.0 1008497
12:00+21wnw466764 1.8 10091258
15:00+22nnw554889 2.2 10101945
18:00+17nw4859100 0.0 1011536
21:00+14nw497811 0.0 1013348
17 june, thu
thu1700:00+11nw289357 0.0 1015154
03:00+9nw25850 0.0 101794
06:00+14nw36640 0.0 1018231
09:00+19nw34460 0.0 10191073
12:00+21nnw453563 0.0 10202523
15:00+22nw463217 0.0 10202657
18:00+21nw46425 0.0 10211382
21:00+15nw11667 0.0 102211